Location: Hilton Head Island
(32.2163°N, 80.7526°W)
Time: 03:19:20
(UTC-04:00)

Transit 2A Rocket - Pass Details

Date: 15 February 2026
Orbit: 583 x 900 km, 66.7° (Epoch: 8 March)

Event Time Altitude Azimuth Distance (km) Brightness Sun altitude
Rises 17:31:32 0° 237° (WSW) 3,452 10.3 6.8°
Reaches altitude 10° 17:34:25 10° 250° (WSW) 2,544 11.1 6.2°
Maximum altitude 17:39:18 26° 305° (NW) 1,695 7.4 5.3°
Drops below altitude 10° 17:44:15 10° 0° (N) 2,572 7.6 4.3°
Sets 17:47:12 0° 13° (NNE) 3,499 8.1 3.7°
